User: anonymous   Login
Location: Dover
(39.1580°N, 75.5250°W)
Time: 04:34:09
(UTC-04:00)
Language:

SeaSat 1 - Orbit

View from above orbital plane
View from above orbital plane
View from above satellite
View from above satellite

Ground track
Ground track

The orbit data is extracted from the following two-line orbital elements,

1 10967U 78064A   16125.14530399  .00000047  00000-0  54367-4 0  9997
2 10967 108.0016 164.8977 0002755 250.1602 109.9246 14.43542311987573
Epoch (UTC): 04 May 2016 03:29:14
Eccentricity: 0.0002755
inclination: 108.0016°
perigee height: 745 km
apogee height: 749 km
right ascension of ascending node: 164.8977°
argument of perigee: 250.1602°
revolutions per day: 14.43542311
mean anomaly at epoch: 109.9246°
orbit number at epoch: 98757

The dashed part of the orbit path shows where the satellite is in the earth's shadow,  

DLR